Comisión Nacional del Agua
Subdirección General Técnica
Estación: Agustín Melgar
Clave: AMLDR
Estado: Durango
Municipio: Nazas

Fecha, Nivel(m), Gasto(m³/s)
1995/01/01,0.38,2.13
1995/01/02,0.38,2.13
1995/01/03,0.38,2.12
1995/01/04,0.38,2.17
1995/01/05,0.37,2.01
1995/01/06,0.37,2.01
1995/01/07,0.37,2.02
1995/01/08,0.37,2.02
1995/01/09,0.37,2.02
1995/01/10,0.37,2.01
1995/01/11,0.37,0.91
1995/01/12,0.37,1.89
1995/01/13,0.37,1.82
1995/01/14,0.37,1.80
1995/01/15,0.37,1.79
1995/01/16,0.37,1.77
1995/01/17,0.37,1.75
1995/01/18,0.37,1.75
1995/01/19,0.37,1.75
1995/01/20,0.35,0.96
1995/01/21,0.35,0.98
1995/01/22,0.35,0.98
1995/01/23,0.35,0.94
1995/01/24,0.35,0.95
1995/01/25,0.34,0.86
1995/01/26,0.33,0.80
1995/01/27,0.35,0.96
1995/01/28,0.35,0.98
1995/01/29,0.35,0.98
1995/01/30,0.35,1.04
1995/01/31,0.35,1.02
1995/02/01,0.33,0.85
1995/02/02,0.33,0.84
1995/02/03,0.35,1.06
1995/02/04,0.35,1.05
1995/02/05,0.35,1.07
1995/02/06,0.36,1.35
1995/02/07,0.37,1.41
1995/02/08,0.37,1.30
1995/02/09,0.37,1.33
1995/02/10,0.35,1.03
1995/02/11,0.35,0.98
1995/02/12,0.34,0.89
1995/02/13,0.34,0.90
1995/02/14,0.34,0.91
1995/02/15,0.34,0.85
1995/02/16,0.35,1.09
1995/02/17,0.34,0.96
1995/02/18,0.34,0.93
1995/02/19,0.34,0.96
1995/02/20,0.34,0.92
1995/02/21,0.35,0.96
1995/02/22,0.35,1.01
1995/02/23,0.35,1.04
1995/02/24,0.35,1.02
1995/02/25,0.33,0.84
1995/02/26,0.33,0.87
1995/02/27,0.33,0.82
1995/02/28,0.34,0.92
1995/03/01,0.34,0.95
1995/03/02,0.34,0.93
1995/03/03,0.34,0.95
1995/03/04,0.33,0.86
1995/03/05,0.33,0.82
1995/03/06,0.33,0.85
1995/03/07,0.33,0.82
1995/03/08,0.33,0.84
1995/03/09,0.33,0.81
1995/03/10,1.15,72.05
1995/03/11,1.19,77.28
1995/03/12,1.20,78.11
1995/03/13,1.20,77.75
1995/03/14,1.25,90.02
1995/03/15,1.25,89.33
1995/03/16,1.23,86.83
1995/03/17,1.23,88.05
1995/03/18,1.23,88.62
1995/03/19,1.24,89.12
1995/03/20,1.24,90.58
1995/03/21,1.24,90.34
1995/03/22,1.25,91.24
1995/03/23,1.25,91.01
1995/03/24,1.25,91.86
1995/03/25,1.25,91.82
1995/03/26,1.25,92.33
1995/03/27,1.25,93.10
1995/03/28,1.25,93.25
1995/03/29,1.25,92.73
1995/03/30,1.25,93.75
1995/03/31,1.25,93.69
1995/04/01,1.24,93.02
1995/04/02,1.24,92.49
1995/04/03,1.24,92.71
1995/04/04,1.25,93.83
1995/04/05,1.45,132.05
1995/04/06,1.45,133.35
1995/04/07,1.44,130.03
1995/04/08,1.43,127.30
1995/04/09,0.73,26.89
1995/04/10,0.49,12.64
1995/04/11,0.46,8.35
1995/04/12,0.43,4.89
1995/04/13,0.40,3.75
1995/04/14,0.39,3.20
1995/04/15,0.39,3.00
1995/04/16,0.39,3.00
1995/04/17,0.37,2.33
1995/04/18,0.36,1.91
1995/04/19,0.35,1.62
1995/04/20,0.38,1.30
1995/04/21,0.33,1.24
1995/04/22,0.32,1.02
1995/04/23,0.31,0.82
1995/04/24,0.31,0.80
1995/04/25,0.31,0.73
1995/04/26,0.30,0.65
1995/04/27,0.30,0.62
1995/04/28,0.30,0.55
1995/04/29,0.30,0.57
1995/04/30,0.30,0.53
1995/05/01,0.30,0.54
1995/05/02,0.30,0.51
1995/05/03,0.29,0.48
1995/05/04,0.28,0.45
1995/05/05,0.28,0.42
1995/05/06,0.28,0.42
1995/05/07,0.18,85.97
1995/05/08,1.18,85.19
1995/05/09,1.18,86.37
1995/05/10,1.03,58.12
1995/05/11,1.05,61.65
1995/05/12,1.05,61.58
1995/05/13,1.05,62.09
1995/05/14,1.05,62.15
1995/05/15,1.05,62.59
1995/05/16,1.07,67.18
1995/05/17,1.13,74.03
1995/05/18,1.14,75.48
1995/05/19,1.14,75.47
1995/05/20,1.13,74.10
1995/05/21,1.13,74.36
1995/05/22,1.13,73.22
1995/05/23,1.22,87.51
1995/05/24,1.22,88.87
1995/05/25,1.22,89.01
1995/05/26,1.22,89.10
1995/05/27,1.21,87.65
1995/05/28,1.21,87.45
1995/05/29,1.21,87.05
1995/05/30,1.21,88.19
1995/05/31,1.21,87.09
1995/06/01,1.21,87.77
1995/06/02,1.21,87.01
1995/06/03,1.21,87.11
1995/06/04,1.21,87.22
1995/06/05,1.21,87.45
1995/06/06,1.21,88.05
1995/06/07,1.21,88.10
1995/06/08,1.21,88.18
1995/06/09,1.21,87.55
1995/06/10,1.21,88.34
1995/06/11,1.21,87.51
1995/06/12,1.21,88.26
1995/06/13,1.22,89.28
1995/06/14,1.21,88.53
1995/06/15,1.20,87.02
1995/06/16,1.21,88.43
1995/06/17,1.40,115.83
1995/06/18,1.40,114.04
1995/06/19,1.42,116.68
1995/06/20,1.45,123.14
1995/06/21,1.44,122.85
1995/06/22,1.42,118.66
1995/06/23,1.36,112.20
1995/06/24,1.40,116.35
1995/06/25,1.39,114.47
1995/06/26,1.43,119.81
1995/06/27,1.42,117.95
1995/06/28,1.21,87.55
1995/06/29,1.35,110.91
1995/06/30,1.39,114.83
1995/07/01,1.41,116.69
1995/07/02,1.41,117.86
1995/07/03,1.41,116.41
1995/07/04,1.41,116.27
1995/07/05,1.40,114.84
1995/07/06,1.39,113.13
1995/07/07,1.40,115.17
1995/07/08,1.39,114.90
1995/07/09,1.38,112.36
1995/07/10,1.55,136.26
1995/07/11,1.34,109.26
1995/07/12,0.77,32.25
1995/07/13,0.70,27.47
1995/07/14,0.68,25.36
1995/07/15,0.67,24.49
1995/07/16,0.67,24.51
1995/07/17,0.67,24.37
1995/07/18,0.65,22.80
1995/07/19,0.65,22.16
1995/07/20,0.90,44.68
1995/07/21,0.77,34.29
1995/07/22,0.66,33.61
1995/07/23,0.75,32.89
1995/07/24,0.69,27.12
1995/07/25,0.65,24.44
1995/07/26,0.63,22.92
1995/07/27,0.62,21.38
1995/07/28,0.61,20.57
1995/07/29,0.61,20.60
1995/07/30,0.61,20.33
1995/07/31,0.61,20.79
1995/08/01,0.62,21.27
1995/08/02,0.62,21.55
1995/08/03,0.62,21.38
1995/08/04,0.48,8.29
1995/08/05,1.47,8.05
1995/08/06,0.43,4.12
1995/08/07,0.40,3.00
1995/08/08,0.38,2.37
1995/08/09,0.36,1.99
1995/08/10,0.36,1.93
1995/08/11,0.35,1.69
1995/08/12,0.34,1.42
1995/08/13,0.34,1.42
1995/08/14,0.32,1.05
1995/08/15,0.32,1.05
1995/08/16,0.32,1.03
1995/08/17,0.60,19.06
1995/08/18,0.55,15.21
1995/08/19,0.53,13.04
1995/08/20,0.55,15.73
1995/08/21,0.55,15.38
1995/08/22,0.50,11.23
1995/08/23,0.45,7.45
1995/08/24,0.45,7.43
1995/08/25,0.40,4.12
1995/08/26,0.39,3.30
1995/08/27,0.37,2.29
1995/08/28,0.35,1.37
1995/08/29,0.35,1.55
1995/08/30,0.37,2.39
1995/08/31,0.62,20.84
1995/09/01,0.54,14.31
1995/09/02,0.53,12.98
1995/09/03,0.53,12.58
1995/09/04,0.47,8.09
1995/09/05,0.47,8.39
1995/09/06,0.43,5.74
1995/09/07,0.40,3.19
1995/09/08,0.37,2.49
1995/09/09,0.35,1.53
1995/09/10,0.35,1.59
1995/09/11,0.35,1.49
1995/09/12,0.34,1.40
1995/09/13,0.36,1.81
1995/09/14,0.34,1.34
1995/09/15,0.34,1.14
1995/09/16,0.37,2.53
1995/09/17,0.36,2.02
1995/09/18,0.36,2.35
1995/09/19,0.35,1.60
1995/09/20,0.35,1.72
1995/09/21,0.55,17.17
1995/09/22,0.56,18.32
1995/09/23,0.48,11.52
1995/09/24,0.46,9.29
1995/09/25,0.45,7.63
1995/09/26,0.43,5.32
1995/09/27,0.42,3.97
1995/09/28,0.40,2.32
1995/09/29,0.40,2.41
1995/09/30,0.39,1.86
1995/10/01,0.39,1.88
1995/10/02,0.39,1.71
1995/10/03,0.38,1.58
1995/10/04,0.38,1.38
1995/10/05,0.37,1.28
1995/10/06,0.36,1.14
1995/10/07,0.36,1.05
1995/10/08,0.36,1.06
1995/10/09,0.35,0.98
1995/10/10,0.35,0.95
1995/10/11,0.35,0.91
1995/10/12,0.35,0.89
1995/10/13,0.35,0.84
1995/10/14,0.34,0.76
1995/10/15,0.34,0.73
1995/10/16,0.33,0.67
1995/10/17,0.33,0.65
1995/10/18,0.33,0.64
1995/10/19,0.33,0.61
1995/10/20,0.33,0.60
1995/10/21,0.32,0.56
1995/10/22,0.32,0.53
1995/10/23,0.32,0.52
1995/10/24,0.32,0.47
1995/10/25,0.32,0.46
1995/10/26,0.31,0.44
1995/10/27,0.31,0.43
1995/10/28,0.31,0.38
1995/10/29,0.30,0.37
1995/10/30,0.30,0.39
1995/10/31,0.30,0.39
1995/11/01,0.30,0.36
1995/11/02,0.30,0.36
1995/11/03,0.30,0.34
1995/11/04,0.30,0.33
1995/11/05,0.30,0.36
1995/11/06,0.30,0.38
1995/11/07,0.30,0.38
1995/11/08,0.30,0.39
1995/11/09,0.30,0.37
1995/11/10,0.30,0.38
1995/11/11,0.30,0.36
1995/11/12,0.32,0.35
1995/11/13,0.31,0.38
1995/11/14,0.31,0.42
1995/11/15,0.21,0.42
1995/11/16,0.31,0.42
1995/11/17,0.31,0.38
1995/11/18,0.31,0.39
1995/11/19,0.31,0.44
1995/11/20,0.31,0.43
1995/11/21,0.31,0.43
1995/11/22,0.30,0.38
1995/11/23,0.30,0.36
1995/11/24,0.30,0.38
1995/11/25,0.30,0.35
1995/11/26,0.30,0.34
1995/11/27,0.30,0.37
1995/11/28,0.30,0.34
1995/11/29,0.30,0.36
1995/11/30,0.30,0.35
1995/12/01,0.30,0.34
1995/12/02,0.30,0.35
1995/12/03,0.30,0.33
1995/12/04,0.30,0.33
1995/12/05,0.30,0.35
1995/12/06,0.30,0.36
1995/12/07,0.30,0.35
1995/12/08,-,-
1995/12/09,-,-
1995/12/10,-,-
1995/12/11,-,-
1995/12/12,-,-
1995/12/13,-,-
1995/12/14,-,-
1995/12/15,-,-
1995/12/16,-,-
1995/12/17,-,-
1995/12/18,-,-
1995/12/19,-,-
1995/12/20,-,-
1995/12/21,-,-
1995/12/22,-,-
1995/12/23,-,-
1995/12/24,-,-
1995/12/25,-,-
1995/12/26,-,-
1995/12/27,-,-
1995/12/28,-,-
1995/12/29,-,-
1995/12/30,-,-
1995/12/31,-,-
1996/01/01,-,-
1996/01/02,-,-
1996/01/03,0.10,0.00
1996/01/04,0.10,0.00
1996/01/05,0.10,0.00
1996/01/06,0.10,0.00
1996/01/07,0.10,0.00
1996/01/08,0.10,0.00
1996/01/09,0.10,0.00
1996/01/10,0.10,-
1996/01/11,0.10,-
1996/01/12,0.10,-
1996/01/13,0.10,-
1996/01/14,0.10,-
1996/01/15,0.10,-
1996/01/16,0.10,-
1996/01/17,0.10,-
1996/01/18,0.10,0.00
1996/01/19,0.10,0.00
1996/01/20,0.10,0.00
1996/01/21,0.10,0.00
1996/01/22,0.10,0.00
1996/01/23,0.10,0.00
1996/01/24,0.10,0.00
1996/01/25,0.10,0.00
1996/01/26,0.14,0.00
1996/01/27,0.14,0.13
1996/01/28,0.10,0.10
1996/01/29,1.12,87.35
1996/01/30,1.22,89.30
1996/01/31,1.24,98.78
1996/02/01,1.24,94.45
1996/02/02,1.25,95.49
1996/02/03,1.25,93.56
1996/02/04,1.24,94.22
1996/02/05,1.25,94.56
1996/02/06,1.26,98.02
1996/02/07,1.25,95.29
1996/02/08,1.25,96.63
1996/02/09,1.25,95.94
1996/02/10,-,-
1996/02/11,-,-
1996/02/12,-,-
1996/02/13,-,-
1996/02/14,-,-
1996/02/15,-,-
1996/02/16,-,-
1996/02/17,-,-
1996/02/18,-,-
1996/02/19,-,-
1996/02/20,-,-
1996/02/21,-,-
1996/02/22,-,-
1996/02/23,-,-
1996/02/24,-,-
1996/02/25,-,-
1996/02/26,-,-
1996/02/27,-,-
1996/02/28,-,-
1996/02/29,-,-
1996/03/01,1.23,96.00
1996/03/02,0.54,0.24
1996/03/03,0.54,0.24
1996/03/04,0.54,0.25
1996/03/05,0.53,0.22
1996/03/06,0.53,0.22
1996/03/07,1.21,89.80
1996/03/08,1.21,89.83
1996/03/09,0.64,26.17
1996/03/10,0.44,12.07
1996/03/11,0.40,10.29
1996/03/12,0.36,7.07
1996/03/13,0.40,4.90
1996/03/14,0.38,3.43
1996/03/15,0.38,3.14
1996/03/16,0.36,2.35
1996/03/17,0.35,1.92
1996/03/18,0.35,1.83
1996/03/19,0.34,1.67
1996/03/20,0.34,1.60
1996/03/21,0.32,1.11
1996/03/22,0.31,0.83
1996/03/23,0.31,0.74
1996/03/24,0.30,0.63
1996/03/25,0.53,11.88
1996/03/26,0.50,8.37
1996/03/27,0.49,7.67
1996/03/28,0.47,6.58
1996/03/29,0.45,5.02
1996/03/30,0.45,5.02
1996/03/31,0.42,4.10
1996/04/01,0.42,4.20
1996/04/02,0.42,4.05
1996/04/03,0.39,3.47
1996/04/04,0.36,2.14
1996/04/05,0.32,1.17
1996/04/06,0.31,1.16
1996/04/07,0.30,0.76
1996/04/08,0.28,0.53
1996/04/09,0.27,0.48
1996/04/10,0.27,0.42
1996/04/11,0.26,0.38
1996/04/12,0.25,0.35
1996/04/13,0.25,0.32
1996/04/14,0.25,0.32
1996/04/15,0.25,0.31
1996/04/16,0.25,0.27
1996/04/17,0.25,0.27
1996/04/18,0.25,0.31
1996/04/19,0.25,0.28
1996/04/20,0.25,0.29
1996/04/21,0.24,0.26
1996/04/22,0.24,0.24
1996/04/23,0.24,0.22
1996/04/24,0.24,0.20
1996/04/25,0.23,0.18
1996/04/26,0.23,0.16
1996/04/27,0.23,0.15
1996/04/28,0.22,0.15
1996/04/29,0.22,0.15
1996/04/30,0.21,0.13
1996/05/01,0.21,0.14
1996/05/02,0.22,0.14
1996/05/03,0.22,0.15
1996/05/04,0.75,32.41
1996/05/05,0.78,35.54
1996/05/06,0.80,37.16
1996/05/07,0.80,37.38
1996/05/08,0.80,38.13
1996/05/09,0.80,37.30
1996/05/10,0.80,37.54
1996/05/11,0.79,36.82
1996/05/12,0.80,36.53
1996/05/13,0.79,36.69
1996/05/14,0.79,36.89
1996/05/15,0.80,36.61
1996/05/16,0.80,38.64
1996/05/17,0.65,23.47
1996/05/18,0.50,7.02
1996/05/19,0.46,5.60
1996/05/20,0.43,4.95
1996/05/21,0.43,4.96
1996/05/22,0.43,5.11
1996/05/23,0.44,5.08
1996/05/24,0.42,4.16
1996/05/25,0.40,3.67
1996/05/26,0.39,3.29
1996/05/27,0.38,3.01
1996/05/28,0.38,2.90
1996/05/29,0.38,2.97
1996/05/30,0.38,3.00
1996/05/31,0.37,2.68
1996/06/01,0.37,2.82
1996/06/02,0.39,4.04
1996/06/03,0.39,3.94
1996/06/04,0.41,4.69
1996/06/05,0.38,3.38
1996/06/06,0.38,3.34
1996/06/07,0.38,3.21
1996/06/08,0.37,2.81
1996/06/09,0.36,2.63
1996/06/10,0.38,3.06
1996/06/11,0.39,3.23
1996/06/12,0.38,2.90
1996/06/13,0.38,2.87
1996/06/14,0.38,2.23
1996/06/15,0.38,2.82
1996/06/16,0.45,5.31
1996/06/17,1.65,2.03
1996/06/18,0.59,10.29
1996/06/19,0.58,8.96
1996/06/20,0.50,7.62
1996/06/21,0.47,6.57
1996/06/22,0.46,6.33
1996/06/23,0.46,6.18
1996/06/24,0.46,6.28
1996/06/25,0.44,5.84
1996/06/26,0.46,6.05
1996/06/27,0.47,6.40
1996/06/28,0.48,6.75
1996/06/29,0.48,6.60
1996/06/30,0.47,6.26
1996/07/01,0.47,-
1996/07/02,0.47,6.35
1996/07/03,0.47,6.51
1996/07/04,0.47,6.63
1996/07/05,0.47,6.24
1996/07/06,0.47,6.32
1996/07/07,0.45,5.99
1996/07/08,0.45,5.60
1996/07/09,0.44,5.53
1996/07/10,0.44,5.42
1996/07/11,0.44,5.48
1996/07/12,0.77,34.15
1996/07/13,0.66,21.68
1996/07/14,0.75,32.24
1996/07/15,0.77,34.71
1996/07/16,0.81,40.12
1996/07/17,0.84,44.80
1996/07/18,0.78,39.87
1996/07/19,0.80,43.24
1996/07/20,0.80,41.87
1996/07/21,0.80,43.75
1996/07/22,0.80,42.23
1996/07/23,0.79,41.70
1996/07/24,0.53,13.30
1996/07/25,0.48,8.07
1996/07/26,0.47,7.68
1996/07/27,0.51,11.64
1996/07/28,0.48,8.28
1996/07/29,0.47,7.71
1996/07/30,0.47,7.54
1996/07/31,0.46,6.62
1996/08/01,0.46,8.73
1996/08/02,0.41,4.02
1996/08/03,0.38,2.40
1996/08/04,0.36,1.52
1996/08/05,0.35,1.12
1996/08/06,0.34,1.00
1996/08/07,0.34,0.98
1996/08/08,0.43,4.85
1996/08/09,0.46,6.30
1996/08/10,0.46,6.32
1996/08/11,0.45,5.85
1996/08/12,0.46,5.95
1996/08/13,0.46,6.13
1996/08/14,0.48,7.32
1996/08/15,0.52,9.64
1996/08/16,0.50,8.43
1996/08/17,0.48,7.39
1996/08/18,0.41,3.55
1996/08/19,0.40,3.27
1996/08/20,0.40,3.19
1996/08/21,0.38,1.97
1996/08/22,0.36,1.64
1996/08/23,0.35,1.38
1996/08/24,0.34,1.07
1996/08/25,0.33,0.95
1996/08/26,3.00,0.80
1996/08/27,0.32,0.83
1996/08/28,0.43,4.88
1996/08/29,0.58,18.45
1996/08/30,-,-
1996/08/31,-,-
1996/09/01,1.50,125.55
1996/09/02,1.60,143.76
1996/09/03,0.90,54.49
1996/09/04,1.51,127.16
1996/09/05,1.00,62.91
1996/09/06,1.88,49.10
1996/09/07,1.92,55.44
1996/09/08,0.78,36.91
1996/09/09,0.66,25.29
1996/09/10,0.67,26.45
1996/09/11,0.55,15.26
1996/09/12,0.51,11.33
1996/09/13,0.49,9.76
1996/09/14,0.50,10.38
1996/09/15,0.55,14.03
1996/09/16,0.55,14.67
1996/09/17,0.53,12.95
1996/09/18,0.50,9.51
1996/09/19,0.51,9.55
1996/09/20,0.52,11.42
1996/09/21,0.63,21.97
1996/09/22,0.59,18.63
1996/09/23,0.51,9.59
1996/09/24,0.48,7.80
1996/09/25,0.48,7.83
1996/09/26,0.47,6.79
1996/09/27,0.43,3.78
1996/09/28,0.44,4.07
1996/09/29,0.42,3.13
1996/09/30,0.40,2.33
1996/10/01,0.38,2.55
1996/10/02,0.36,1.54
1996/10/03,0.34,1.12
1996/10/04,0.33,0.91
1996/10/05,1.90,187.22
1996/10/06,1.50,125.83
1996/10/07,1.13,74.58
1996/10/08,0.91,55.33
1996/10/09,0.77,40.72
1996/10/10,0.62,24.51
1996/10/11,0.54,15.62
1996/10/12,0.49,9.53
1996/10/13,0.48,7.43
1996/10/14,0.47,6.64
1996/10/15,0.47,6.43
1996/10/16,0.47,6.63
1996/10/17,0.46,5.80
1996/10/18,0.45,5.35
1996/10/19,0.44,4.72
1996/10/20,0.43,4.50
1996/10/21,0.41,3.80
1996/10/22,0.39,3.18
1996/10/23,0.38,2.62
1996/10/24,0.37,2.40
1996/10/25,0.36,1.73
1996/10/26,0.36,1.81
1996/10/27,0.36,1.80
1996/10/28,0.35,1.60
1996/10/29,0.34,1.12
1996/10/30,0.33,1.04
1996/10/31,0.33,0.85
1996/11/01,0.33,0.73
1996/11/02,0.33,0.73
1996/11/03,0.33,0.70
1996/11/04,0.33,0.66
1996/11/05,0.32,0.58
1996/11/06,0.32,0.53
1996/11/07,0.32,0.56
1996/11/08,0.32,0.57
1996/11/09,0.31,0.47
1996/11/10,0.31,0.48
1996/11/11,0.31,0.43
1996/11/12,0.31,0.43
1996/11/13,0.31,0.43
1996/11/14,0.30,0.39
1996/11/15,0.30,0.35
1996/11/16,0.30,0.38
1996/11/17,0.30,0.37
1996/11/18,0.30,0.35
1996/11/19,0.30,0.37
1996/11/20,0.30,0.33
1996/11/21,0.30,0.37
1996/11/22,0.30,0.38
1996/11/23,0.30,0.34
1996/11/24,0.30,0.36
1996/11/25,0.30,0.35
1996/11/26,0.29,0.33
1996/11/27,0.30,0.36
1996/11/28,0.30,0.35
1996/11/29,0.30,0.37
1996/11/30,0.30,0.35
1996/12/01,0.30,0.33
1996/12/02,0.30,0.33
1996/12/03,0.30,0.52
1996/12/04,0.30,0.32
1996/12/05,0.29,0.32
1996/12/06,0.29,0.32
1996/12/07,0.29,0.32
1996/12/08,0.29,0.32
1996/12/09,0.29,0.32
1996/12/10,0.29,0.32
1996/12/11,0.29,0.32
1996/12/12,0.29,0.32
1996/12/13,-,-
1996/12/14,-,-
1996/12/15,-,-
1996/12/16,-,-
1996/12/17,0.29,0.33
1996/12/18,-,-
1996/12/19,0.29,0.32
1996/12/20,0.29,0.32
1996/12/21,0.29,0.31
1996/12/22,0.28,0.30
1996/12/23,0.29,0.32
1996/12/24,0.29,0.31
1996/12/25,0.29,0.31
1996/12/26,0.29,0.32
1996/12/27,0.29,0.32
1996/12/28,-,-
1996/12/29,-,-
1996/12/30,-,-
1996/12/31,-,-
1997/01/01,0.28,0.22
1997/01/02,0.28,0.24
1997/01/03,0.28,0.24
1997/01/04,0.29,0.25
1997/01/05,0.29,0.27
1997/01/06,0.29,0.26
1997/01/07,0.29,0.30
1997/01/08,0.29,0.26
1997/01/09,0.29,0.28
1997/01/10,0.26,0.28
1997/01/11,0.29,0.32
1997/01/12,0.29,0.30
1997/01/13,0.29,0.31
1997/01/14,0.30,0.36
1997/01/15,0.30,0.35
1997/01/16,0.30,0.33
1997/01/17,0.30,0.35
1997/01/18,0.30,0.39
1997/01/19,0.30,0.36
1997/01/20,0.31,0.40
1997/01/21,0.35,1.53
1997/01/22,0.35,1.46
1997/01/23,0.36,1.62
1997/01/24,0.36,1.60
1997/01/25,0.36,1.64
1997/01/26,0.36,1.55
1997/01/27,0.36,1.46
1997/01/28,0.35,1.33
1997/01/29,0.34,1.12
1997/01/30,0.33,0.94
1997/01/31,-,-
1997/02/01,0.33,0.85
1997/02/02,0.33,0.86
1997/02/03,0.34,1.05
1997/02/04,0.35,1.11
1997/02/05,0.35,1.19
1997/02/06,0.35,1.13
1997/02/07,0.34,1.05
1997/02/08,0.32,0.70
1997/02/09,0.32,0.67
1997/02/10,0.32,0.36
1997/02/11,0.32,0.73
1997/02/12,0.31,0.63
1997/02/13,0.31,0.58
1997/02/14,0.31,0.61
1997/02/15,0.30,0.53
1997/02/16,0.30,0.51
1997/02/17,0.31,0.55
1997/02/18,0.30,0.48
1997/02/19,0.30,0.45
1997/02/20,0.30,0.43
1997/02/21,0.29,0.39
1997/02/22,0.29,0.37
1997/02/23,0.29,0.36
1997/02/24,0.29,0.37
1997/02/25,0.29,0.35
1997/02/26,0.29,0.33
1997/02/27,0.29,0.35
1997/02/28,0.29,0.35
1997/03/01,0.29,0.35
1997/03/02,0.29,0.36
1997/03/03,0.29,0.34
1997/03/04,0.29,0.37
1997/03/05,0.29,0.32
1997/03/06,0.29,0.35
1997/03/07,0.29,0.34
1997/03/08,0.86,47.79
1997/03/09,1.16,83.68
1997/03/10,1.20,91.10
1997/03/11,1.19,90.13
1997/03/12,1.21,94.61
1997/03/13,1.20,92.91
1997/03/14,1.20,-
1997/03/15,1.20,91.45
1997/03/16,1.19,91.45
1997/03/17,1.20,94.82
1997/03/18,1.20,93.39
1997/03/19,1.20,94.02
1997/03/20,1.19,92.24
1997/03/21,1.19,92.89
1997/03/22,1.20,95.05
1997/03/23,1.19,92.78
1997/03/24,1.21,95.43
1997/03/25,1.20,94.50
1997/03/26,1.19,93.95
1997/03/27,1.20,94.73
1997/03/28,1.19,93.20
1997/03/29,1.19,93.22
1997/03/30,1.19,93.11
1997/03/31,1.20,94.80
1997/04/01,1.20,93.97
1997/04/02,1.13,81.68
1997/04/03,0.95,57.45
1997/04/04,0.92,54.01
1997/04/05,0.70,33.00
1997/04/06,0.66,29.29
1997/04/07,0.65,24.71
1997/04/08,0.65,24.51
1997/04/09,0.53,13.65
1997/04/10,0.49,8.85
1997/04/11,0.45,5.67
1997/04/12,0.44,4.79
1997/04/13,0.41,3.01
1997/04/14,0.40,2.46
1997/04/15,0.40,2.45
1997/04/16,0.37,1.47
1997/04/17,0.37,1.35
1997/04/18,0.36,1.21
1997/04/19,0.35,1.01
1997/04/20,0.35,0.96
1997/04/21,0.35,0.92
1997/04/22,0.35,0.92
1997/04/23,0.33,0.65
1997/04/24,0.33,0.54
1997/04/25,0.32,0.47
1997/04/26,0.32,0.43
1997/04/27,0.32,0.41
1997/04/28,0.31,0.39
1997/04/29,0.31,0.33
1997/04/30,0.31,0.39
1997/05/01,0.31,0.30
1997/05/02,0.31,0.28
1997/05/03,0.30,0.25
1997/05/04,3.00,0.23
1997/05/05,0.30,0.22
1997/05/06,0.30,0.23
1997/05/07,0.30,0.26
1997/05/08,0.30,0.26
1997/05/09,0.30,0.27
1997/05/10,0.36,1.13
1997/05/11,0.49,8.24
1997/05/12,1.15,84.83
1997/05/13,1.18,92.03
1997/05/14,1.20,93.87
1997/05/15,1.19,92.36
1997/05/16,1.19,92.88
1997/05/17,1.19,92.45
1997/05/18,1.19,92.63
1997/05/19,1.20,93.43
1997/05/20,1.19,92.88
1997/05/21,1.20,94.15
1997/05/22,1.18,92.31
1997/05/23,1.20,95.43
1997/05/24,1.19,93.11
1997/05/25,1.17,91.64
1997/05/26,1.18,92.55
1997/05/27,1.18,92.57
1997/05/28,1.18,92.89
1997/05/29,1.19,93.44
1997/05/30,1.19,93.34
1997/05/31,1.17,92.82
1997/06/01,1.17,92.62
1997/06/02,1.18,93.49
1997/06/03,1.18,93.37
1997/06/04,1.17,91.87
1997/06/05,1.35,109.20
1997/06/06,1.39,116.37
1997/06/07,1.41,118.46
1997/06/08,1.39,117.62
1997/06/09,1.38,116.35
1997/06/10,1.38,116.42
1997/06/11,1.39,118.73
1997/06/12,1.41,121.63
1997/06/13,1.44,126.95
1997/06/14,1.44,127.67
1997/06/15,1.44,118.32
1997/06/16,1.44,118.30
1997/06/17,1.44,128.24
1997/06/18,1.45,129.63
1997/06/19,1.44,128.32
1997/06/20,1.45,129.89
1997/06/21,1.45,129.62
1997/06/22,1.45,128.88
1997/06/23,1.44,129.23
1997/06/24,1.45,130.63
1997/06/25,1.24,97.32
1997/06/26,-,-
1997/06/27,-,-
1997/06/28,-,-
1997/06/29,-,-
1997/06/30,-,-
1997/07/01,1.22,94.62
1997/07/02,1.23,96.80
1997/07/03,1.23,97.66
1997/07/04,1.13,83.71
1997/07/05,1.14,85.63
1997/07/06,1.14,87.09
1997/07/07,1.13,85.86
1997/07/08,1.13,85.24
1997/07/09,1.13,85.88
1997/07/10,1.14,87.15
1997/07/11,1.14,87.62
1997/07/12,1.16,90.60
1997/07/13,1.15,88.97
1997/07/14,1.11,85.47
1997/07/15,1.12,86.70
1997/07/16,1.11,85.82
1997/07/17,1.42,132.52
1997/07/18,1.40,130.30
1997/07/19,1.40,129.56
1997/07/20,1.39,129.12
1997/07/21,1.23,98.60
1997/07/22,1.35,123.98
1997/07/23,1.17,89.21
1997/07/24,1.11,83.69
1997/07/25,1.00,75.24
1997/07/26,0.99,73.68
1997/07/27,0.99,72.88
1997/07/28,0.99,71.16
1997/07/29,1.08,80.24
1997/07/30,1.18,90.94
1997/07/31,1.08,84.83
1997/08/01,1.07,80.00
1997/08/02,1.04,74.68
1997/08/03,0.95,70.62
1997/08/04,0.90,54.39
1997/08/05,0.88,52.60
1997/08/06,0.89,53.41
1997/08/07,0.89,53.87
1997/08/08,0.90,54.27
1997/08/09,0.89,53.32
1997/08/10,0.88,52.42
1997/08/11,0.86,42.32
1997/08/12,0.72,33.56
1997/08/13,0.54,14.24
1997/08/14,0.53,11.45
1997/08/15,0.51,9.79
1997/08/16,0.50,8.00
1997/08/17,0.48,5.62
1997/08/18,0.46,5.62
1997/08/19,0.43,3.82
1997/08/20,0.42,3.12
1997/08/21,0.41,2.78
1997/08/22,0.41,2.52
1997/08/23,0.37,1.43
1997/08/24,0.37,1.37
1997/08/25,0.35,0.99
1997/08/26,0.34,0.88
1997/08/27,0.33,0.79
1997/08/28,0.32,0.75
1997/08/29,0.31,0.71
1997/08/30,0.31,0.63
1997/08/31,0.31,0.65
1997/09/01,0.30,0.61
1997/09/02,0.29,0.58
1997/09/03,0.29,0.48
1997/09/04,0.28,0.44
1997/09/05,0.27,0.40
1997/09/06,0.26,0.38
1997/09/07,0.26,0.36
1997/09/08,0.25,0.34
1997/09/09,0.25,0.28
1997/09/10,0.25,0.25
1997/09/11,0.24,0.21
1997/09/12,0.24,0.22
1997/09/13,0.24,0.26
1997/09/14,0.24,0.24
1997/09/15,0.24,0.22
1997/09/16,0.24,0.21
1997/09/17,0.24,0.25
1997/09/18,0.23,0.24
1997/09/19,0.24,0.25
1997/09/20,0.23,0.24
1997/09/21,0.23,0.22
1997/09/22,0.23,0.85
1997/09/23,0.24,0.27
1997/09/24,0.25,0.56
1997/09/25,0.26,0.56
1997/09/26,0.45,5.62
1997/09/27,0.44,5.03
1997/09/28,0.43,4.32
1997/09/29,0.32,1.50
1997/09/30,0.31,1.20
1997/10/01,0.29,0.51
1997/10/02,0.29,0.51
1997/10/03,0.27,0.32
1997/10/04,0.27,0.36
1997/10/05,0.26,0.35
1997/10/06,0.26,0.32
1997/10/07,0.26,0.32
1997/10/08,0.26,0.36
1997/10/09,0.27,0.43
1997/10/10,0.27,0.47
1997/10/11,0.27,0.38
1997/10/12,0.27,0.38
1997/10/13,0.27,0.40
1997/10/14,0.28,0.48
1997/10/15,0.28,0.54
1997/10/16,0.27,0.46
1997/10/17,0.26,0.39
1997/10/18,0.26,0.40
1997/10/19,0.26,0.38
1997/10/20,0.26,0.36
1997/10/21,0.26,0.43
1997/10/22,0.26,0.40
1997/10/23,0.26,0.40
1997/10/24,0.25,0.34
1997/10/25,0.25,0.35
1997/10/26,0.25,0.34
1997/10/27,0.25,0.38
1997/10/28,0.25,0.39
1997/10/29,0.25,0.36
1997/10/30,0.25,0.40
1997/10/31,0.25,0.34
1997/11/01,0.25,0.35
1997/11/02,0.25,0.36
1997/11/03,0.23,0.22
1997/11/04,0.22,0.16
1997/11/05,0.22,0.16
1997/11/06,0.21,0.15
1997/11/07,0.21,0.17
1997/11/08,0.21,0.16
1997/11/09,0.21,0.13
1997/11/10,0.21,0.18
1997/11/11,0.21,0.14
1997/11/12,0.21,0.16
1997/11/13,0.22,0.19
1997/11/14,0.22,0.22
1997/11/15,0.22,0.25
1997/11/16,0.22,0.21
1997/11/17,0.19,0.19
1997/11/18,0.21,0.14
1997/11/19,0.21,0.16
1997/11/20,0.21,0.17
1997/11/21,0.21,0.13
1997/11/22,0.21,0.15
1997/11/23,0.20,0.13
1997/11/24,0.20,0.15
1997/11/25,0.20,0.15
1997/11/26,0.20,0.12
1997/11/27,0.20,0.16
1997/11/28,0.20,0.16
1997/11/29,0.21,0.19
1997/11/30,0.21,0.17
1997/12/01,0.21,0.19
1997/12/02,0.21,0.19
1997/12/03,0.21,0.15
1997/12/04,0.22,0.19
1997/12/05,0.22,0.26
1997/12/06,0.22,0.26
1997/12/07,0.22,0.27
1997/12/08,0.22,0.24
1997/12/09,0.22,0.25
1997/12/10,0.22,0.23
1997/12/11,0.22,0.28
1997/12/12,0.22,0.28
1997/12/13,0.22,0.28
1997/12/14,0.22,0.28
1997/12/15,-,-
1997/12/16,-,-
1997/12/17,-,-
1997/12/18,0.22,0.26
1997/12/19,0.22,0.26
1997/12/20,0.22,0.26